{"data":{"norad_id":55771,"epoch":"2026-09-20T23:06:52.901856Z","epoch_age_seconds":63060,"freshness":"FRESH","line1":"1 55771U 23028AG  26263.96311229  .00000321  00000+0  34650-4 0  9999","line2":"2 55771  69.9984  92.0848 0002448 272.3276  87.7602 14.98332146195781","mean_motion":14.98332146,"eccentricity":0.0002448,"inclination_deg":69.9984,"raan_deg":92.0848,"arg_perigee_deg":272.3276,"mean_anomaly_deg":87.7602,"bstar":3.465e-5,"rev_number":19578,"period_min":96.10686147556,"perigee_km":570.34784902923,"apogee_km":573.75066021949,"semimajor_km":6950.1862546244,"source":"CELESTRAK","updated_at":"2026-09-21T09:00:33.317225Z"}}